Volver al catálogo

SOLRAD 1

GREB

ActivoCienciaLEO
NORAD 46·PAYLOAD·🇺🇸 United States

Lanzado Jun 22, 1960 desde Cape Canaveral Space Force Station

Loading…

Próximos Pases (próximas 24 horas)

TLE

ActualizadoSource: Space-Track

Época: Sep 7, 2026, 12:57 UTC

1 00046U 60007B   26250.53989230  .00000661  00000-0  13847-3 0  9996
2 00046  66.6902   3.6904 0200713 232.7656 125.4998 14.54968273468989

Sigue SOLRAD 1 en tiempo real con AllMySat

Download on the App Store